| time (UTC) | temp C | wind direction | speed KPH | gust KPH | rain 1hr cm | rain 24hr cm | rain mn cm | humidity % | barometer mb |
| 20260508063215 | 9 | 135 | 4.8 | 9.7 | 0.00 | 0.00 | 0.00 | 88 | 1009.8 |
| 20260508061822 | 8 | 158 | 4.8 | 11.3 | 0.00 | 0.00 | 0.00 | 88 | 1009.6 |
| 20260508060415 | 9 | 158 | 1.6 | 8.0 | 0.00 | 0.00 | 0.00 | 89 | 1009.6 |
| 20260508055716 | 8 | 158 | 0.0 | 0.0 | 0.00 | 0.00 | 0.00 | 89 | 1009.5 |
| 20260508053616 | 8 | 158 | 0.0 | 0.0 | 0.00 | 0.00 | 0.00 | 89 | 1009.4 |
| 20260508052306 | 8 | 158 | 0.0 | 0.0 | 0.00 | 0.00 | 0.00 | 90 | 1009.3 |
| 20260508050817 | 8 | 135 | 0.0 | 0.0 | 0.00 | 0.00 | 0.00 | 90 | 1009.2 |
| 20260508050117 | 8 | 158 | 0.0 | 0.0 | 0.00 | 0.00 | 0.00 | 90 | 1009.1 |
| 20260508045417 | 8 | 135 | 0.0 | 0.0 | 0.00 | 0.00 | 0.00 | 90 | 1009.0 |
| 20260508044720 | 8 | 135 | 0.0 | 0.0 | 0.00 | 0.00 | 0.00 | 90 | 1009.0 |
| 20260508043318 | 8 | 158 | 0.0 | 0.0 | 0.00 | 0.00 | 0.00 | 90 | 1009.1 |
| 20260508042618 | 8 | 158 | 0.0 | 0.0 | 0.00 | 0.00 | 0.00 | 90 | 1009.0 |
| 20260508041918 | 8 | 158 | 0.0 | 0.0 | 0.00 | 0.00 | 0.00 | 90 | 1009.1 |
| 20260508041218 | 8 | 158 | 0.0 | 0.0 | 0.00 | 0.00 | 0.00 | 89 | 1009.0 |
| 20260508035819 | 8 | 158 | 0.0 | 0.0 | 0.00 | 0.00 | 0.00 | 89 | 1008.9 |
| 20260508033721 | 8 | 135 | 0.0 | 0.0 | 0.00 | 0.00 | 0.00 | 89 | 1008.7 |
| 20260508033019 | 8 | 135 | 0.0 | 0.0 | 0.00 | 0.00 | 0.00 | 88 | 1008.9 |
| 20260508032322 | 8 | 135 | 0.0 | 0.0 | 0.00 | 0.00 | 0.00 | 88 | 1009.0 |
| 20260508031620 | 8 | 158 | 0.0 | 0.0 | 0.00 | 0.00 | 0.00 | 88 | 1008.9 |
| 20260508030920 | 8 | 158 | 0.0 | 0.0 | 0.00 | 0.00 | 0.00 | 87 | 1008.9 |
| 20260508030220 | 8 | 135 | 0.0 | 0.0 | 0.00 | 0.00 | 0.00 | 87 | 1008.7 |
| 20260508024820 | 8 | 135 | 0.0 | 0.0 | 0.00 | 0.00 | 0.00 | 87 | 1008.6 |
| 20260508024125 | 8 | 135 | 0.0 | 3.2 | 0.00 | 0.00 | 0.00 | 86 | 1008.5 |
| 20260508023421 | 8 | 158 | 0.0 | 4.8 | 0.00 | 0.00 | 0.00 | 86 | 1008.5 |
| 20260508022723 | 8 | 135 | 0.0 | 6.4 | 0.00 | 0.00 | 0.00 | 86 | 1008.6 |
| 20260508022021 | 8 | 135 | 0.0 | 3.2 | 0.00 | 0.00 | 0.00 | 86 | 1008.7 |
| 20260508021321 | 8 | 359 | 0.0 | 0.0 | 0.00 | 0.00 | 0.00 | 86 | 1008.7 |
| 20260508020621 | 100 | 359 | 0.0 | 0.0 | 0.00 | 0.00 | 0.00 | 100 | |
| 20260508015921 | 8 | 135 | 0.0 | 4.8 | 0.00 | 0.00 | 0.00 | 86 | 1008.7 |
| 20260508015222 | 8 | 135 | 0.0 | 8.0 | 0.00 | 0.00 | 0.00 | 86 | 1008.6 |
| 20260508014522 | 8 | 158 | 0.0 | 4.8 | 0.00 | 0.00 | 0.00 | 85 | 1008.5 |
| 20260508013822 | 8 | 158 | 0.0 | 6.4 | 0.00 | 0.00 | 0.00 | 85 | 1008.6 |
| 20260508013207 | 8 | 158 | 1.6 | 6.4 | 0.00 | 0.00 | 0.00 | 85 | 1008.5 |
| 20260508012507 | 8 | 158 | 1.6 | 11.3 | 0.00 | 0.00 | 0.00 | 85 | 1008.4 |
| 20260508011108 | 9 | 359 | 0.0 | 0.0 | 0.00 | 0.00 | 0.00 | 84 | 1008.5 |
| 20260508005708 | 9 | 359 | 0.0 | 0.0 | 0.00 | 0.00 | 0.00 | 84 | 1008.3 |
| 20260508004308 | 9 | 158 | 1.6 | 4.8 | 0.00 | 0.00 | 0.00 | 84 | 1008.3 |
| 20260508003609 | 9 | 158 | 0.0 | 3.2 | 0.00 | 0.00 | 0.00 | 84 | 1008.3 |
| 20260508002909 | 9 | 135 | 1.6 | 6.4 | 0.00 | 0.00 | 0.00 | 84 | 1008.2 |
| 20260508002209 | 9 | 359 | 0.0 | 0.0 | 0.00 | 0.00 | 0.00 | 84 | 1008.2 |
| 20260508001424 | 9 | 158 | 1.6 | 6.4 | 0.00 | 0.00 | 0.00 | 84 | 1008.3 |
| 20260508000724 | 9 | 359 | 0.0 | 0.0 | 0.00 | 0.00 | 0.00 | 84 | 1008.3 |
| 20260507235410 | 9 | 158 | 4.8 | 9.7 | 0.00 | 0.05 | 0.00 | 84 | 1008.1 |
| 20260507234710 | 9 | 158 | 3.2 | 11.3 | 0.00 | 0.05 | 0.00 | 84 | 1008.1 |
| 20260507233310 | 9 | 158 | 1.6 | 6.4 | 0.00 | 0.05 | 0.00 | 84 | 1008.1 |
| 20260507232612 | 9 | 158 | 1.6 | 4.8 | 0.00 | 0.05 | 0.00 | 84 | 1008.0 |
| 20260507231128 | 10 | 158 | 1.6 | 11.3 | 0.00 | 0.05 | 0.00 | 84 | 1008.0 |
| 20260507230433 | 10 | 158 | 3.2 | 12.9 | 0.00 | 0.05 | 0.00 | 84 | 1008.1 |
| 20260507225026 | 10 | 158 | 3.2 | 12.9 | 0.00 | 0.15 | 0.00 | 84 | 1008.0 |
| 20260507224326 | 10 | 135 | 4.8 | 12.9 | 0.00 | 0.15 | 0.00 | 84 | 1008.0 |
| 20260507223627 | 10 | 158 | 6.4 | 12.9 | 0.00 | 0.15 | 0.00 | 85 | 1008.0 |
| 20260507222927 | 10 | 135 | 3.2 | 8.0 | 0.00 | 0.15 | 0.00 | 85 | 1007.9 |
| 20260507221527 | 10 | 158 | 3.2 | 11.3 | 0.00 | 0.15 | 0.00 | 85 | 1007.7 |
| 20260507220832 | 10 | 158 | 1.6 | 8.0 | 0.00 | 0.15 | 0.00 | 85 | 1007.9 |
| 20260507220132 | 10 | 135 | 1.6 | 6.4 | 0.00 | 0.15 | 0.00 | 85 | 1007.9 |
| 20260507215428 | 10 | 135 | 3.2 | 6.4 | 0.00 | 0.15 | 0.00 | 85 | 1007.6 |
| 20260507214748 | 12 | 135 | 0.0 | 6.4 | 0.00 | 0.15 | 0.00 | 85 | 1007.7 |
| 20260507214741 | 10 | 135 | 0.0 | 6.4 | 0.00 | 0.15 | 0.00 | 85 | 1007.7 |
| 20260507214032 | 10 | 135 | 0.0 | 6.4 | 0.00 | 0.15 | 0.00 | 85 | 1007.8 |
| 20260507213330 | 10 | 135 | 0.0 | 6.4 | 0.00 | 0.15 | 0.00 | 85 | 1007.5 |
| 20260507212628 | 10 | 90 | 0.0 | 3.2 | 0.00 | 0.15 | 0.00 | 85 | 1007.6 |
| 20260507210553 | 10 | 135 | 1.6 | 6.4 | 0.00 | 0.15 | 0.00 | 84 | 1007.5 |
| 20260507205836 | 10 | 135 | 0.0 | 4.8 | 0.00 | 0.15 | 0.00 | 84 | 1007.5 |
| 20260507205136 | 10 | 135 | 0.0 | 0.0 | 0.00 | 0.15 | 0.00 | 84 | 1007.5 |
| 20260507204429 | 10 | 135 | 0.0 | 1.6 | 0.00 | 0.15 | 0.00 | 84 | 1007.6 |
| 20260507203749 | 10 | 135 | 0.0 | 0.0 | 0.00 | 0.15 | 0.00 | 84 | 1007.4 |
| 20260507202332 | 10 | 158 | 0.0 | 0.0 | 0.00 | 0.15 | 0.00 | 83 | 1007.4 |
| 20260507200930 | 10 | 158 | 0.0 | 0.0 | 0.00 | 0.15 | 0.00 | 83 | 1007.5 |
| 20260507195531 | 10 | 158 | 0.0 | 1.6 | 0.00 | 0.15 | 0.00 | 83 | 1007.4 |
| 20260507194831 | 10 | 135 | 0.0 | 3.2 | 0.00 | 0.15 | 0.00 | 83 | 1007.1 |
| 20260507194131 | 10 | 158 | 0.0 | 0.0 | 0.00 | 0.15 | 0.00 | 83 | 1007.4 |
| 20260507193431 | 11 | 158 | 0.0 | 4.8 | 0.00 | 0.15 | 0.00 | 83 | 1007.2 |
| 20260507192310 | 11 | 158 | 0.0 | 4.8 | 0.00 | 0.15 | 0.00 | 83 | 1006.9 |
| 20260507192152 | 11 | 158 | 0.0 | 4.8 | 0.00 | 0.15 | 0.00 | 83 | 1006.9 |
| 20260507192120 | 11 | 158 | 0.0 | 4.8 | 0.00 | 0.15 | 0.00 | 83 | 1006.9 |
| 20260507192041 | 11 | 158 | 0.0 | 4.8 | 0.00 | 0.15 | 0.00 | 83 | 1006.9 |
| 20260507192031 | 11 | 158 | 0.0 | 4.8 | 0.00 | 0.15 | 0.00 | 83 | 1006.9 |
| 20260507191334 | 11 | 158 | 0.0 | 0.0 | 0.00 | 0.15 | 0.00 | 82 | 1006.8 |
| 20260507190807 | 11 | 158 | 0.0 | 3.2 | 0.00 | 0.15 | 0.00 | 82 | 1006.6 |
| 20260507190730 | 11 | 158 | 0.0 | 3.2 | 0.00 | 0.15 | 0.00 | 82 | 1006.6 |
| 20260507190658 | 11 | 158 | 0.0 | 3.2 | 0.00 | 0.15 | 0.00 | 82 | 1006.6 |
| 20260507190632 | 11 | 158 | 0.0 | 3.2 | 0.00 | 0.15 | 0.00 | 82 | 1006.6 |
| 20260507185932 | 11 | 158 | 1.6 | 6.4 | 0.00 | 0.15 | 0.00 | 82 | 1006.8 |
| 20260507184625 | 11 | 135 | 0.0 | 0.0 | 0.00 | 0.15 | 0.00 | 81 | 1006.7 |
| 20260507184617 | 11 | 135 | 0.0 | 0.0 | 0.00 | 0.15 | 0.00 | 81 | 1006.7 |
| 20260507183133 | 11 | 158 | 0.0 | 1.6 | 0.00 | 0.15 | 0.00 | 81 | 1006.7 |
| 20260507182433 | 11 | 135 | 0.0 | 0.0 | 0.00 | 0.15 | 0.00 | 80 | 1006.4 |
| 20260507181633 | 11 | 135 | 0.0 | 3.2 | 0.00 | 0.15 | 0.00 | 80 | 1006.5 |
| 20260507181102 | 11 | 135 | 0.0 | 3.2 | 0.00 | 0.15 | 0.00 | 80 | 1006.5 |
| 20260507180418 | 11 | 90 | 0.0 | 3.2 | 0.00 | 0.15 | 0.00 | 80 | 1006.4 |
| 20260507175634 | 11 | 135 | 0.0 | 0.0 | 0.00 | 0.15 | 0.00 | 79 | 1006.3 |
| 20260507174938 | 11 | 135 | 0.0 | 0.0 | 0.00 | 0.15 | 0.00 | 79 | 1006.4 |
| 20260507172143 | 11 | 135 | 0.0 | 4.8 | 0.00 | 0.15 | 0.00 | 78 | 1005.6 |
| 20260507171439 | 11 | 135 | 3.2 | 11.3 | 0.00 | 0.15 | 0.00 | 78 | 1005.6 |
| 20260507170820 | 11 | 135 | 4.8 | 11.3 | 0.00 | 0.15 | 0.00 | 77 | 1005.4 |
| 20260507165335 | 12 | 158 | 6.4 | 16.1 | 0.00 | 0.15 | 0.00 | 77 | 1005.2 |
| 20260507163940 | 12 | 135 | 6.4 | 12.9 | 0.00 | 0.15 | 0.00 | 76 | 1005.1 |
| 20260507162536 | 12 | 158 | 6.4 | 11.3 | 0.00 | 0.15 | 0.00 | 76 | 1005.0 |
| 20260507161136 | 13 | 158 | 4.8 | 11.3 | 0.00 | 0.15 | 0.00 | 76 | 1005.0 |
| 20260507160436 | 13 | 359 | 0.0 | 0.0 | 0.00 | 0.15 | 0.00 | 75 | 1005.3 |
| 20260507155039 | 13 | 135 | 3.2 | 9.7 | 0.00 | 0.15 | 0.00 | 75 | 1005.2 |
| 20260507154337 | 13 | 158 | 4.8 | 11.3 | 0.00 | 0.15 | 0.00 | 75 | 1005.1 |
| 20260507152348 | 13 | 135 | 6.4 | 14.5 | 0.00 | 0.15 | 0.00 | 75 | 1005.1 |
| 20260507151538 | 13 | 135 | 6.4 | 14.5 | 0.00 | 0.15 | 0.00 | 75 | 1005.1 |
| 20260507150847 | 13 | 135 | 9.7 | 17.7 | 0.00 | 0.15 | 0.00 | 75 | 1005.0 |
| 20260507150142 | 13 | 135 | 6.4 | 17.7 | 0.00 | 0.15 | 0.00 | 74 | 1005.1 |
| 20260507145438 | 13 | 359 | 0.0 | 0.0 | 0.00 | 0.15 | 0.00 | 74 | 1005.1 |
| 20260507144738 | 14 | 135 | 4.8 | 14.5 | 0.00 | 0.15 | 0.00 | 73 | 1005.1 |
| 20260507144038 | 15 | 135 | 3.2 | 9.7 | 0.00 | 0.15 | 0.00 | 71 | 1005.0 |
| 20260507143339 | 15 | 113 | 1.6 | 9.7 | 0.00 | 0.15 | 0.00 | 69 | 1005.0 |
| 20260507141939 | 16 | 135 | 6.4 | 12.9 | 0.00 | 0.15 | 0.00 | 69 | 1004.6 |
| 20260507141248 | 16 | 135 | 6.4 | 17.7 | 0.00 | 0.15 | 0.00 | 68 | 1004.5 |
| 20260507140539 | 16 | 135 | 4.8 | 12.9 | 0.00 | 0.15 | 0.00 | 69 | 1004.7 |
| 20260507135842 | 16 | 135 | 3.2 | 9.7 | 0.00 | 0.15 | 0.00 | 70 | 1004.6 |
| 20260507134440 | 15 | 68 | 3.2 | 11.3 | 0.00 | 0.15 | 0.00 | 70 | 1004.6 |
| 20260507133040 | 16 | 68 | 1.6 | 8.0 | 0.00 | 0.15 | 0.00 | 70 | 1004.5 |
| 20260507132340 | 16 | 68 | 0.0 | 4.8 | 0.00 | 0.15 | 0.00 | 70 | 1004.7 |
| 20260507130241 | 16 | 113 | 1.6 | 8.0 | 0.00 | 0.15 | 0.00 | 71 | 1004.4 |
| 20260507124141 | 15 | 359 | 0.0 | 0.0 | 0.00 | 0.15 | 0.00 | 72 | 1004.5 |
| 20260507123442 | 16 | 135 | 4.8 | 12.9 | 0.00 | 0.15 | 0.00 | 72 | 1004.5 |
| 20260507115243 | 14 | 359 | 0.0 | 0.0 | 0.00 | 0.15 | 0.00 | 75 | 1004.5 |
| 20260507112446 | 15 | 113 | 1.6 | 8.0 | 0.00 | 0.15 | 0.00 | 75 | 1004.3 |
| 20260507111744 | 15 | 90 | 1.6 | 8.0 | 0.00 | 0.15 | 0.00 | 75 | 1004.3 |
| 20260507104244 | 14 | 90 | 0.0 | 6.4 | 0.00 | 0.15 | 0.00 | 81 | 1004.0 |
| 20260507102845 | 13 | 359 | 0.0 | 0.0 | 0.00 | 0.15 | 0.00 | 83 | 1003.9 |
| 20260507102145 | 13 | 359 | 0.0 | 0.0 | 0.00 | 0.15 | 0.00 | 84 | 1004.0 |
| 20260507101445 | 13 | 135 | 1.6 | 9.7 | 0.00 | 0.15 | 0.00 | 86 | 1003.8 |
| 20260507093253 | 11 | 90 | 1.6 | 8.0 | 0.00 | 0.15 | 0.00 | 90 | 1003.4 |
| 20260507092551 | 10 | 113 | 0.0 | 8.0 | 0.00 | 0.15 | 0.00 | 90 | 1003.2 |
| 20260507091855 | 10 | 135 | 1.6 | 6.4 | 0.00 | 0.15 | 0.00 | 90 | 1003.4 |
| 20260507090532 | 10 | 135 | 1.6 | 8.0 | 0.00 | 0.15 | 0.00 | 90 | 1003.3 |
| 20260507085049 | 10 | 135 | 1.6 | 6.4 | 0.00 | 0.15 | 0.00 | 89 | 1002.9 |
| 20260507084407 | 10 | 135 | 1.6 | 8.0 | 0.00 | 0.15 | 0.00 | 89 | 1002.8 |
| 20260507083648 | 10 | 90 | 1.6 | 8.0 | 0.00 | 0.15 | 0.00 | 89 | 1002.6 |
| 20260507082248 | 10 | 90 | 3.2 | 11.3 | 0.00 | 0.15 | 0.00 | 89 | 1002.3 |
| 20260507080848 | 10 | 113 | 0.0 | 3.2 | 0.00 | 0.15 | 0.00 | 88 | 1002.3 |
| 20260507075455 | 11 | 90 | 0.0 | 4.8 | 0.00 | 0.15 | 0.00 | 88 | 1002.0 |
| 20260507074749 | 11 | 68 | 0.0 | 6.4 | 0.00 | 0.15 | 0.00 | 88 | 1002.2 |
| 20260507073353 | 11 | 359 | 0.0 | 0.0 | 0.00 | 0.15 | 0.00 | 88 | 1001.6 |
| 20260507072656 | 11 | 359 | 0.0 | 0.0 | 0.00 | 0.15 | 0.00 | 88 | 1001.6 |
| 20260507071252 | 11 | 68 | 1.6 | 8.0 | 0.00 | 0.15 | 0.00 | 88 | 1001.5 |